[[{"header":{"parameterUnit":"m.s-1","parameterCategory":1,"la1":30.2991,"la2":30.254,"lo1":-89.0895,"lo2":-89.0444,"dy":0.0017,"dx":0.0017,"nx":28,"ny":28,"refTime":"2024-03-23T03:00:00:Z","depth":0,"parameterNumber":2,"parameterNumberName":"U-component_of_WINDS"},"data":[0,0,0,0,0,0,0,0,0,0,0,0,0,0,0,0,0,0,0,0,0,0,0,0,0,0,0,0,0,0,0,0,0,0,0,0,0,0,0,0,0,0,0,0,0,0,0,0,0,0,0,0,0,0,0,0,0,0,0.0657,0.0657,0,0.0658,0.0658,0.0658,0.0657,0.0657,0.0657,0.0657,0.066,0.066,0.066,0,0,0,0,0,0,0,0,0,0,0,0,0,0.0656,0.0656,0.0657,0.0657,0.0657,0.0658,0.0658,0.0658,0.0657,0.0657,0.0657,0.0657,0.066,0.066,0.066,0,0,0,0,0,0,0,0,0,0,0,0,0,0.0657,0.0656,0.0657,0.0656,0.0656,0.0658,0.0658,0.0658,0.0657,0.0657,0.0657,0.0657,0.0659,0.066,0.066,0.0663,0,0,0.066,0.0661,0,0,0,0,0,0,0,0,0.0657,0.0657,0.0657,0.0657,0.0656,0.0657,0.0659,0.066,0.0657,0.0657,0.0657,0.0657,0.0659,0.0659,0.066,0.0663,0.0663,0.066,0.0661,0.0661,0.0661,0,0,0,0,0,0,0,0.0657,0.0657,0.0658,0.0657,0.0657,0.0657,0.0657,0.0659,0.0658,0.0657,0.0657,0.0657,0.0659,0.0659,0.066,0.0663,0.066,0.0661,0.0661,0.0661,0.067,0.067,0,0,0,0,0,0,0.0657,0.0657,0.0657,0.0658,0.0656,0.0657,0.0657,0.0657,0.0658,0.0658,0.0657,0.0657,0.0659,0.0659,0.066,0.0664,0.0661,0.0661,0.0661,0.067,0.067,0.0671,0,0,0,0,0,0,0.0657,0.0657,0.0657,0.0657,0.0657,0.0657,0.0657,0.0657,0.0658,0.0658,0.0658,0.0657,0.0659,0.066,0.0662,0.0664,0.0661,0.0661,0.067,0.067,0.067,0.0672,0,0,0,0,0,0,0.0657,0.0657,0.0657,0.0657,0.0657,0.0659,0.0657,0.0657,0.0658,0.0658,0.0659,0.0659,0.0659,0.0662,0.0662,0.0664,0.0661,0.067,0.067,0.067,0.0672,0.0673,0.0673,0,0,0,0,0,0.0657,0.0658,0.0657,0.0657,0.0658,0.0659,0.0659,0.0659,0.0658,0.0659,0.066,0.0659,0.0664,0.0662,0.0663,0.0665,0.067,0.067,0.067,0.0672,0.0672,0.0673,0,0,0,0,0,0,0.0658,0.0657,0.0657,0.0658,0.0658,0.0659,0.066,0.0659,0.0661,0.066,0.0661,0.0661,0.0664,0.0665,0.0663,0.0669,0.0667,0.0667,0.0668,0.0668,0.0669,0.0669,0.0661,0,0,0,0,0,0.0658,0.0658,0.0659,0.0659,0.066,0.066,0.066,0.066,0.0661,0.0661,0.0662,0.0664,0.0666,0.0667,0.0669,0.0672,0.0673,0.0674,0.0675,0.0675,0.0675,0.0679,0.068,0.0672,0.0672,0.0672,0,0,0.0659,0.0659,0.0659,0.066,0.066,0.0662,0.066,0.0661,0.0663,0.0662,0.0664,0.0665,0.0667,0.067,0.0672,0.0671,0.0678,0.0675,0.0676,0.0676,0.0679,0.068,0.0681,0.0672,0.0672,0.0672,0,0,0.0661,0.066,0.0661,0.0662,0.0663,0.0663,0.0664,0.0664,0.0665,0.0667,0.0667,0.0669,0.0673,0.0674,0.0676,0.068,0.068,0.0681,0.0683,0.0686,0.0687,0.0688,0.069,0.0691,0.0681,0.0681,0.0681,0,0.0662,0.0663,0.0662,0.0664,0.0665,0.0664,0.0666,0.0667,0.0668,0.067,0.0669,0.0673,0.0675,0.0679,0.068,0.0681,0.0682,0.068,0.0687,0.0687,0.0688,0.069,0.0691,0.0681,0.0681,0.0681,0.0681,0,0.0664,0.0666,0.0667,0.0668,0.0669,0.0671,0.0671,0.0673,0.0673,0.0674,0.0677,0.0679,0.0682,0.0683,0.0683,0.0688,0.0687,0.0687,0.0685,0.0689,0.0691,0.0692,0.0681,0.0681,0.0681,0.0681,0,0,0.0666,0.0668,0.0669,0.067,0.0671,0.0673,0.0675,0.0677,0.0679,0.0681,0.0684,0.0687,0.0687,0.0688,0.0689,0.0692,0.0697,0.0691,0.0691,0.0693,0.0704,0.0704,0.0705,0.0697,0.0697,0.0697,0.0704,0,0.0669,0.0672,0.0672,0.0676,0.0678,0.0678,0.068,0.0682,0.0683,0.0686,0.0688,0.069,0.0689,0.069,0.0693,0.0695,0.0699,0.0695,0.07,0.0701,0.07,0.0706,0.0707,0.0713,0.0705,0.0705,0.0705,0,0.0672,0.0674,0.0677,0.068,0.068,0.0682,0.0685,0.0687,0.069,0.0691,0.0694,0.0694,0.0698,0.0696,0.0703,0.07,0.0703,0.0704,0.0704,0.0705,0.0703,0.0708,0.0715,0.0716,0.0706,0.0706,0.0706,0,0.0674,0.0677,0.068,0.0681,0.0684,0.0685,0.0687,0.0689,0.0691,0.0694,0.0696,0.07,0.0702,0.0705,0.0707,0.0706,0.0714,0.0712,0.0716,0.0716,0.0717,0.0717,0.0726,0.0718,0.0718,0.0718,0.0718,0,0.0677,0.0679,0.0681,0.0683,0.0686,0.0687,0.0691,0.0692,0.0695,0.0698,0.0699,0.0702,0.0704,0.0708,0.071,0.0716,0.0716,0.0718,0.0719,0.0718,0.0718,0.072,0.072,0.0719,0.0718,0.0718,0.0718,0,0.0679,0.068,0.0684,0.0686,0.0687,0.069,0.0692,0.0695,0.0697,0.0701,0.0702,0.0705,0.0709,0.0712,0.0718,0.0719,0.0726,0.0726,0.0725,0.0725,0.0729,0.0729,0.0739,0.0741,0.0732,0.0732,0.0732,0,0.0681,0.0683,0.0686,0.0688,0.0689,0.0692,0.0694,0.0696,0.0699,0.0703,0.0705,0.071,0.0714,0.0722,0.0725,0.073,0.0731,0.0734,0.0731,0.0731,0.0732,0.0732,0.0733,0.0734,0.0734,0.0735,0.0735,0,0.0684,0.0685,0.0688,0.0691,0.0694,0.0696,0.0699,0.0701,0.0704,0.0707,0.0711,0.0714,0.0721,0.0726,0.0732,0.0734,0.0735,0.0735,0.0737,0.0736,0.0736,0.0737,0.0727,0.0735,0.0735,0.0735,0.0735,0.0735,0.0687,0.0689,0.0692,0.0695,0.0698,0.0701,0.0704,0.0706,0.071,0.0715,0.0716,0.0721,0.0726,0.0734,0.0737,0.0742,0.0741,0.0743,0.0743,0.0744,0.0744,0.0735,0.0743,0.0743,0.0743,0.0743,0.0743,0,0.0691,0.0693,0.0696,0.07,0.0704,0.0704,0.0708,0.071,0.0715,0.0719,0.0723,0.0729,0.0735,0.0739,0.0745,0.0748,0.0749,0.075,0.075,0.0751,0.0744,0.0743,0.0749,0.0749,0.0749,0.0749,0.0749,0.0749,0.0693,0.0698,0.0699,0.0705,0.0708,0.0712,0.0715,0.0718,0.0721,0.0728,0.0733,0.0735,0.074,0.0747,0.0752,0.0753,0.0756,0.0757,0.0758,0.0752,0.0751,0.0751,0.0749,0.0757,0.0757,0.0765,0.0765,0.0765]},{"header":{"parameterUnit":"m.s-1","parameterCategory":1,"la1":30.2991,"la2":30.254,"lo1":-89.0895,"lo2":-89.0444,"dy":0.0017,"dx":0.0017,"nx":28,"ny":28,"refTime":"2024-03-23T03:00:00:Z","depth":0,"parameterNumber":3,"parameterNumberName":"V-component_of_WINDS"},"data":[0,0,0,0,0,0,0,0,0,0,0,0,0,0,0,0,0,0,0,0,0,0,0,0,0,0,0,0,0,0,0,0,0,0,0,0,0,0,0,0,0,0,0,0,0,0,0,0,0,0,0,0,0,0,0,0,0,0,3.5295,3.5297,0,3.5479,3.5481,3.5483,3.5482,3.548,3.5477,3.5475,3.566,3.5667,3.5674,0,0,0,0,0,0,0,0,0,0,0,0,0,3.4938,3.4944,3.5294,3.5297,3.5299,3.5478,3.5481,3.5483,3.5483,3.548,3.5477,3.5474,3.5657,3.5666,3.5674,0,0,0,0,0,0,0,0,0,0,0,0,0,3.5104,3.4947,3.5294,3.532,3.5325,3.5478,3.5481,3.5484,3.5483,3.548,3.5476,3.5473,3.5654,3.5665,3.5675,3.5814,0,0,3.5708,3.5713,0,0,0,0,0,0,0,0,3.5095,3.5117,3.5314,3.5319,3.5324,3.5454,3.5423,3.5594,3.5484,3.5423,3.5475,3.5471,3.5594,3.5609,3.5652,3.5822,3.583,3.5709,3.5716,3.572,3.5723,0,0,0,0,0,0,0,3.5083,3.5109,3.5367,3.5317,3.5323,3.5322,3.5341,3.5455,3.5526,3.5428,3.5428,3.545,3.5596,3.5641,3.5656,3.5833,3.5709,3.5718,3.5725,3.5729,3.6126,3.6129,0,0,0,0,0,0,3.5067,3.51,3.5361,3.5373,3.5198,3.5331,3.5353,3.5416,3.5525,3.5538,3.5453,3.545,3.5625,3.5643,3.5662,3.5832,3.572,3.573,3.5736,3.6122,3.6126,3.6131,0,0,0,0,0,0,3.5059,3.509,3.5354,3.5237,3.527,3.5341,3.5411,3.5421,3.5467,3.5544,3.5556,3.5487,3.5623,3.5647,3.5776,3.5839,3.5735,3.5745,3.6117,3.6123,3.6129,3.6172,0,0,0,0,0,0,3.5049,3.5088,3.5142,3.5238,3.5276,3.5467,3.5415,3.5427,3.5486,3.5483,3.5579,3.5592,3.5622,3.576,3.5787,3.5851,3.5753,3.6111,3.612,3.6127,3.6166,3.6179,3.6191,0,0,0,0,0,3.5036,3.5146,3.5145,3.5176,3.5346,3.547,3.5492,3.5526,3.5491,3.5546,3.5595,3.5588,3.5827,3.5773,3.5803,3.5872,3.6108,3.6117,3.6126,3.616,3.6176,3.619,0,0,0,0,0,0,3.5055,3.5159,3.5159,3.5303,3.5378,3.547,3.554,3.5542,3.5627,3.5621,3.5657,3.5679,3.5808,3.5852,3.5791,3.6011,3.5963,3.5978,3.5978,3.5994,3.6007,3.5994,3.5762,0,0,0,0,0,3.5076,3.5169,3.5254,3.5373,3.5411,3.5469,3.5524,3.5544,3.5622,3.5653,3.5712,3.5787,3.5879,3.5939,3.6027,3.6171,3.6192,3.6233,3.6245,3.6255,3.6269,3.6348,3.6368,3.6161,3.6161,3.6161,0,0,3.512,3.5188,3.5245,3.5379,3.5439,3.5534,3.5496,3.5597,3.5668,3.5668,3.5795,3.584,3.5926,3.6063,3.6126,3.6104,3.633,3.6267,3.6274,3.6283,3.636,3.6379,3.6397,3.6167,3.6166,3.6165,0,0,3.5249,3.531,3.5417,3.5478,3.557,3.5607,3.5632,3.5724,3.5755,3.5882,3.5884,3.5967,3.6125,3.6186,3.6238,3.6389,3.6386,3.6416,3.6483,3.656,3.6576,3.6591,3.6646,3.6665,3.6429,3.6429,3.6429,0,3.5293,3.5437,3.547,3.5574,3.5632,3.5637,3.5745,3.5801,3.5917,3.5957,3.593,3.6128,3.6186,3.6338,3.6375,3.6416,3.6446,3.6407,3.6571,3.6586,3.66,3.6653,3.6674,3.6433,3.6432,3.6432,3.6432,0,3.5486,3.5586,3.566,3.5774,3.584,3.5944,3.5992,3.6055,3.6068,3.6108,3.6237,3.6307,3.641,3.6446,3.6459,3.66,3.6584,3.6564,3.6516,3.6623,3.6673,3.6694,3.6437,3.6436,3.6435,3.6434,0,0,3.5635,3.5764,3.5791,3.5843,3.5944,3.6021,3.6124,3.6227,3.6281,3.6359,3.6447,3.6579,3.6561,3.662,3.6639,3.6707,3.6823,3.6679,3.6681,3.6704,3.6983,3.6999,3.7022,3.6821,3.6825,3.6828,3.6977,0,3.5776,3.5963,3.5996,3.6159,3.6251,3.6256,3.6346,3.6417,3.6457,3.654,3.6582,3.6676,3.6645,3.668,3.6747,3.6795,3.688,3.6784,3.6903,3.6907,3.6884,3.7049,3.7066,3.7204,3.6996,3.7,3.7002,0,3.5968,3.6053,3.6226,3.6314,3.6354,3.6435,3.6531,3.661,3.669,3.6714,3.6779,3.679,3.6896,3.6842,3.6989,3.6923,3.6973,3.7003,3.7009,3.7024,3.6963,3.7069,3.7248,3.7269,3.7033,3.7031,3.7028,0,3.6061,3.6218,3.6342,3.6386,3.6492,3.6549,3.6595,3.6671,3.673,3.6813,3.6852,3.6945,3.6996,3.7067,3.7103,3.706,3.7248,3.7196,3.7271,3.727,3.7312,3.731,3.7504,3.734,3.734,3.734,3.7339,0,3.6217,3.6323,3.6386,3.6462,3.658,3.6615,3.6731,3.6775,3.6843,3.6927,3.6935,3.7014,3.7055,3.7139,3.7167,3.7285,3.7307,3.7329,3.7336,3.733,3.7328,3.7365,3.7357,3.7345,3.7344,3.7343,3.7342,0,3.6343,3.6389,3.6525,3.6614,3.6638,3.6722,3.6797,3.6871,3.6909,3.7015,3.7042,3.7102,3.7201,3.7243,3.7364,3.7383,3.7519,3.7517,3.7493,3.7495,3.7568,3.7562,3.7795,3.7828,3.7641,3.7642,3.7644,0,3.6441,3.6523,3.6621,3.6679,3.6727,3.682,3.688,3.6916,3.6979,3.7075,3.7137,3.7237,3.7319,3.7477,3.753,3.7623,3.7625,3.77,3.7639,3.7631,3.7628,3.7624,3.7633,3.7712,3.7714,3.7716,3.7717,0,3.6611,3.6629,3.6718,3.6814,3.6886,3.6963,3.7038,3.7084,3.7132,3.7201,3.7304,3.7367,3.7492,3.7591,3.7686,3.7732,3.7733,3.7735,3.7758,3.7754,3.7738,3.7749,3.7526,3.773,3.7729,3.7728,3.7727,3.7727,3.6727,3.68,3.6881,3.6979,3.7039,3.7109,3.7183,3.723,3.7317,3.7422,3.7437,3.7547,3.7623,3.7752,3.7801,3.7886,3.7867,3.7899,3.7908,3.7916,3.7922,3.7722,3.7903,3.7903,3.7903,3.7903,3.7902,0,3.6899,3.6951,3.704,3.7146,3.7222,3.7216,3.7298,3.7363,3.746,3.7531,3.7612,3.7729,3.7825,3.7885,3.7981,3.8037,3.804,3.8062,3.8059,3.807,3.7932,3.7905,3.8058,3.8058,3.8058,3.8058,3.8058,3.8058,3.6998,3.7122,3.715,3.7303,3.7353,3.7463,3.751,3.7574,3.7631,3.7763,3.7843,3.7882,3.7949,3.8049,3.8136,3.8151,3.8187,3.821,3.8224,3.8095,3.8079,3.8064,3.8038,3.8217,3.8217,3.8354,3.8356,3.8357]}]]